Time,TemperatureF,DewpointF,PressureIn,WindDirection,WindDirectionDegrees,WindSpeedMPH,WindSpeedGustMPH,Humidity,HourlyPrecipIn,Conditions,Clouds,dailyrainin,SoftwareType,DateUTC
2013-03-01 00:02:00,31.0,25.0,29.98,South,173,0.0,0.0,77,0.00,,,0.00,,2013-03-01 05:02:00,
2013-03-01 00:11:00,31.0,25.0,29.98,South,173,0.0,0.0,77,0.00,,,0.00,,2013-03-01 05:11:00,
2013-03-01 00:22:00,30.0,24.0,29.99,South,173,0.0,0.0,79,0.00,,,0.00,,2013-03-01 05:22:00,
2013-03-01 00:32:00,30.0,24.0,29.99,South,173,0.0,0.0,79,0.00,,,0.00,,2013-03-01 05:32:00,
2013-03-01 00:42:00,30.0,24.0,29.99,South,173,0.0,0.0,79,0.00,,,0.00,,2013-03-01 05:42:00,
2013-03-01 00:53:00,29.0,24.0,29.99,South,173,0.0,0.0,80,0.00,,,0.00,,2013-03-01 05:53:00,
2013-03-01 01:02:00,29.0,24.0,29.98,South,173,0.0,0.0,81,0.00,,,0.00,,2013-03-01 06:02:00,
2013-03-01 01:12:00,29.0,24.0,29.98,South,173,0.0,0.0,81,0.00,,,0.00,,2013-03-01 06:12:00,
2013-03-01 01:22:00,30.0,25.0,30.00,South,173,0.0,0.0,81,0.00,,,0.00,,2013-03-01 06:22:00,
2013-03-01 01:32:00,30.0,25.0,30.00,South,173,0.0,0.0,81,0.00,,,0.00,,2013-03-01 06:32:00,
2013-03-01 01:42:00,30.0,25.0,30.00,South,173,0.0,0.0,81,0.00,,,0.00,,2013-03-01 06:42:00,
2013-03-01 01:53:00,29.0,24.0,30.00,South,173,0.0,0.0,82,0.00,,,0.00,,2013-03-01 06:53:00,
2013-03-01 02:02:00,29.0,24.0,29.99,South,173,0.0,0.0,82,0.00,,,0.00,,2013-03-01 07:02:00,
2013-03-01 02:12:00,29.0,24.0,29.99,South,173,0.0,0.0,82,0.00,,,0.00,,2013-03-01 07:12:00,
2013-03-01 02:22:00,29.0,24.0,29.98,South,173,0.0,0.0,82,0.00,,,0.00,,2013-03-01 07:22:00,
2013-03-01 02:32:00,29.0,25.0,29.98,South,173,0.0,0.0,83,0.00,,,0.00,,2013-03-01 07:32:00,
2013-03-01 02:42:00,29.0,25.0,29.98,South,173,0.0,0.0,83,0.00,,,0.00,,2013-03-01 07:42:00,
2013-03-01 02:52:00,29.0,25.0,29.98,South,173,0.0,0.0,84,0.00,,,0.00,,2013-03-01 07:52:00,
2013-03-01 03:02:00,29.0,25.0,29.98,South,173,0.0,0.0,83,0.00,,,0.00,,2013-03-01 08:02:00,
2013-03-01 03:12:00,29.0,25.0,29.98,South,173,0.0,0.0,83,0.00,,,0.00,,2013-03-01 08:12:00,
2013-03-01 03:22:00,29.0,25.0,29.98,South,173,0.0,0.0,84,0.00,,,0.00,,2013-03-01 08:22:00,
2013-03-01 03:32:00,28.0,24.0,29.98,South,173,0.0,0.0,85,0.00,,,0.00,,2013-03-01 08:32:00,
2013-03-01 03:43:00,28.0,24.0,29.98,South,173,0.0,0.0,85,0.00,,,0.00,,2013-03-01 08:43:00,
2013-03-01 03:53:00,28.0,24.0,29.98,South,173,0.0,0.0,85,0.00,,,0.00,,2013-03-01 08:53:00,
2013-03-01 04:02:00,28.0,24.0,29.98,South,173,0.0,0.0,85,0.00,,,0.00,,2013-03-01 09:02:00,
2013-03-01 04:12:00,28.0,24.0,29.98,South,173,0.0,0.0,85,0.00,,,0.00,,2013-03-01 09:12:00,
2013-03-01 04:22:00,27.0,23.0,29.97,South,173,0.0,0.0,85,0.00,,,0.00,,2013-03-01 09:22:00,
2013-03-01 04:32:00,27.0,23.0,29.97,South,173,0.0,0.0,85,0.00,,,0.00,,2013-03-01 09:32:00,
2013-03-01 04:42:00,27.0,23.0,29.97,South,173,0.0,0.0,85,0.00,,,0.00,,2013-03-01 09:42:00,
2013-03-01 04:52:00,27.0,23.0,29.98,South,173,0.0,0.0,86,0.00,,,0.00,,2013-03-01 09:52:00,
2013-03-01 05:02:00,27.0,23.0,29.98,South,173,0.0,0.0,86,0.00,,,0.00,,2013-03-01 10:02:00,
2013-03-01 05:12:00,27.0,23.0,29.98,South,173,0.0,0.0,86,0.00,,,0.00,,2013-03-01 10:12:00,
2013-03-01 05:22:00,26.0,23.0,29.99,South,173,0.0,0.0,87,0.00,,,0.00,,2013-03-01 10:22:00,
2013-03-01 05:32:00,26.0,23.0,29.99,South,173,0.0,0.0,87,0.00,,,0.00,,2013-03-01 10:32:00,
2013-03-01 05:42:00,26.0,23.0,29.99,South,173,0.0,0.0,87,0.00,,,0.00,,2013-03-01 10:42:00,
2013-03-01 05:53:00,26.0,23.0,29.99,South,173,0.0,0.0,87,0.00,,,0.00,,2013-03-01 10:53:00,
2013-03-01 06:02:00,26.0,23.0,30.00,South,173,0.0,0.0,87,0.00,,,0.00,,2013-03-01 11:02:00,
2013-03-01 06:11:00,26.0,23.0,30.00,South,173,0.0,0.0,87,0.00,,,0.00,,2013-03-01 11:11:00,
2013-03-01 06:22:00,26.0,23.0,30.00,South,173,0.0,0.0,88,0.00,,,0.00,,2013-03-01 11:22:00,
2013-03-01 06:32:00,26.0,23.0,30.00,South,173,0.0,0.0,88,0.00,,,0.00,,2013-03-01 11:32:00,
2013-03-01 06:42:00,26.0,23.0,30.00,South,173,0.0,0.0,88,0.00,,,0.00,,2013-03-01 11:42:00,
2013-03-01 06:52:00,25.0,22.0,30.01,South,173,0.0,0.0,88,0.00,,,0.00,,2013-03-01 11:52:00,
2013-03-01 07:02:00,25.0,22.0,30.01,South,173,0.0,0.0,88,0.00,,,0.00,,2013-03-01 12:02:00,
2013-03-01 07:11:00,25.0,22.0,30.01,South,173,0.0,0.0,88,0.00,,,0.00,,2013-03-01 12:11:00,
2013-03-01 07:22:00,25.0,22.0,30.01,South,173,0.0,0.0,88,0.00,,,0.00,,2013-03-01 12:22:00,
2013-03-01 07:32:00,24.0,21.0,30.01,South,173,0.0,0.0,88,0.00,,,0.00,,2013-03-01 12:32:00,
2013-03-01 07:42:00,24.0,21.0,30.01,South,173,0.0,0.0,88,0.00,,,0.00,,2013-03-01 12:42:00,
2013-03-01 07:52:00,25.0,22.0,30.01,South,173,0.0,0.0,89,0.00,,,0.00,,2013-03-01 12:52:00,
2013-03-01 08:01:00,25.0,22.0,30.01,South,173,0.0,0.0,89,0.00,,,0.00,,2013-03-01 13:01:00,
2013-03-01 08:11:00,25.0,22.0,30.01,South,173,0.0,0.0,89,0.00,,,0.00,,2013-03-01 13:11:00,
2013-03-01 08:22:00,26.0,23.0,30.01,South,173,0.0,0.0,90,0.00,,,0.00,,2013-03-01 13:22:00,
2013-03-01 08:32:00,27.0,24.0,30.01,South,173,0.0,0.0,90,0.00,,,0.00,,2013-03-01 13:32:00,
2013-03-01 08:42:00,27.0,24.0,30.01,South,173,0.0,0.0,90,0.00,,,0.00,,2013-03-01 13:42:00,
2013-03-01 08:52:00,31.0,28.0,30.02,ESE,109,0.0,1.0,90,0.00,,,0.00,,2013-03-01 13:52:00,
2013-03-01 09:01:00,33.0,30.0,30.02,ESE,109,0.0,1.0,87,0.00,,,0.00,,2013-03-01 14:01:00,
2013-03-01 09:11:00,33.0,30.0,30.02,ESE,109,0.0,1.0,87,0.00,,,0.00,,2013-03-01 14:11:00,
2013-03-01 09:22:00,36.0,31.0,30.02,ENE,71,0.0,2.0,81,0.00,,,0.00,,2013-03-01 14:22:00,
2013-03-01 09:32:00,37.0,31.0,30.02,ENE,65,0.0,4.0,78,0.00,,,0.00,,2013-03-01 14:32:00,
2013-03-01 09:42:00,37.0,31.0,30.02,ENE,65,0.0,4.0,78,0.00,,,0.00,,2013-03-01 14:42:00,
2013-03-01 09:52:00,39.0,31.0,30.02,ENE,58,1.0,4.0,73,0.00,,,0.00,,2013-03-01 14:52:00,
2013-03-01 10:02:00,40.0,31.0,30.02,NE,51,2.0,5.0,71,0.00,,,0.00,,2013-03-01 15:02:00,
2013-03-01 10:11:00,41.0,31.0,30.01,ENE,64,1.0,3.0,66,0.00,,,0.00,,2013-03-01 15:11:00,
2013-03-01 10:21:00,41.0,31.0,30.01,ENE,64,1.0,3.0,66,0.00,,,0.00,,2013-03-01 15:21:00,
2013-03-01 10:32:00,41.0,30.0,30.01,ENE,74,0.0,5.0,65,0.00,,,0.00,,2013-03-01 15:32:00,
2013-03-01 10:42:00,41.0,30.0,30.01,ENE,74,0.0,5.0,65,0.00,,,0.00,,2013-03-01 15:42:00,
2013-03-01 10:52:00,42.0,30.0,30.02,East,87,1.0,4.0,61,0.00,,,0.00,,2013-03-01 15:52:00,
2013-03-01 11:01:00,43.0,30.0,30.02,ENE,61,1.0,4.0,61,0.00,,,0.00,,2013-03-01 16:01:00,
2013-03-01 11:11:00,43.0,30.0,30.02,ENE,61,1.0,4.0,61,0.00,,,0.00,,2013-03-01 16:11:00,
2013-03-01 11:21:00,44.0,30.0,30.01,NE,55,2.0,7.0,57,0.00,,,0.00,,2013-03-01 16:21:00,
2013-03-01 11:32:00,44.0,29.0,30.01,North,9,2.0,5.0,56,0.00,,,0.00,,2013-03-01 16:32:00,
2013-03-01 11:42:00,44.0,29.0,30.01,North,9,2.0,5.0,56,0.00,,,0.00,,2013-03-01 16:42:00,
2013-03-01 11:52:00,43.0,30.0,30.01,SSW,194,0.0,6.0,59,0.00,,,0.00,,2013-03-01 16:52:00,
2013-03-01 12:01:00,43.0,29.0,30.01,ENE,65,0.0,3.0,58,0.00,,,0.00,,2013-03-01 17:01:00,
2013-03-01 12:11:00,43.0,29.0,30.01,ENE,65,0.0,3.0,58,0.00,,,0.00,,2013-03-01 17:11:00,
2013-03-01 12:21:00,43.0,29.0,30.01,East,86,0.0,2.0,58,0.00,,,0.00,,2013-03-01 17:21:00,
2013-03-01 12:32:00,43.0,29.0,30.01,NNW,342,1.0,3.0,58,0.00,,,0.00,,2013-03-01 17:32:00,
2013-03-01 12:42:00,43.0,29.0,30.01,NNW,342,1.0,3.0,58,0.00,,,0.00,,2013-03-01 17:42:00,
2013-03-01 12:52:00,44.0,30.0,30.00,WSW,248,0.0,3.0,58,0.00,,,0.00,,2013-03-01 17:52:00,
2013-03-01 13:01:00,44.0,30.0,30.00,ENE,76,0.0,4.0,57,0.00,,,0.00,,2013-03-01 18:01:00,
2013-03-01 13:12:00,44.0,30.0,30.00,ENE,76,0.0,4.0,57,0.00,,,0.00,,2013-03-01 18:12:00,
2013-03-01 13:22:00,45.0,31.0,29.99,ENE,65,0.0,3.0,57,0.00,,,0.00,,2013-03-01 18:22:00,
2013-03-01 13:32:00,45.0,30.0,29.99,ENE,65,2.0,4.0,56,0.00,,,0.00,,2013-03-01 18:32:00,
2013-03-01 13:42:00,45.0,30.0,29.99,ENE,65,2.0,4.0,56,0.00,,,0.00,,2013-03-01 18:42:00,
2013-03-01 13:52:00,46.0,31.0,29.98,SW,227,1.0,3.0,55,0.00,,,0.00,,2013-03-01 18:52:00,
2013-03-01 14:01:00,46.0,30.0,29.98,East,97,2.0,6.0,54,0.00,,,0.00,,2013-03-01 19:01:00,
2013-03-01 14:11:00,46.0,30.0,29.98,East,97,2.0,6.0,54,0.00,,,0.00,,2013-03-01 19:11:00,
2013-03-01 14:21:00,46.0,30.0,29.97,SW,215,0.0,9.0,54,0.00,,,0.00,,2013-03-01 19:21:00,
2013-03-01 14:32:00,46.0,30.0,29.97,ENE,68,1.0,4.0,53,0.00,,,0.00,,2013-03-01 19:32:00,
2013-03-01 14:42:00,46.0,30.0,29.97,ENE,68,1.0,4.0,53,0.00,,,0.00,,2013-03-01 19:42:00,
2013-03-01 14:52:00,46.0,30.0,29.96,ENE,78,2.0,6.0,53,0.00,,,0.00,,2013-03-01 19:52:00,
2013-03-01 15:01:00,46.0,30.0,29.96,NNW,345,1.0,9.0,53,0.00,,,0.00,,2013-03-01 20:01:00,
2013-03-01 15:11:00,46.0,30.0,29.96,NNW,345,1.0,9.0,53,0.00,,,0.00,,2013-03-01 20:11:00,
2013-03-01 15:21:00,47.0,31.0,29.96,SW,234,1.0,6.0,53,0.00,,,0.00,,2013-03-01 20:21:00,
2013-03-01 15:32:00,47.0,31.0,29.96,ENE,67,4.0,7.0,53,0.00,,,0.00,,2013-03-01 20:32:00,
2013-03-01 15:42:00,47.0,31.0,29.96,ENE,67,4.0,7.0,53,0.00,,,0.00,,2013-03-01 20:42:00,
2013-03-01 15:52:00,47.0,30.0,29.96,ENE,60,1.0,4.0,51,0.00,,,0.00,,2013-03-01 20:52:00,
2013-03-01 16:01:00,47.0,31.0,29.96,ENE,59,1.0,4.0,53,0.00,,,0.00,,2013-03-01 21:01:00,
2013-03-01 16:11:00,46.0,30.0,29.96,ENE,67,0.0,5.0,53,0.00,,,0.00,,2013-03-01 21:11:00,
2013-03-01 16:21:00,46.0,30.0,29.96,ENE,67,0.0,5.0,53,0.00,,,0.00,,2013-03-01 21:21:00,
2013-03-01 16:32:00,46.0,30.0,29.96,East,91,0.0,3.0,53,0.00,,,0.00,,2013-03-01 21:32:00,
2013-03-01 16:42:00,46.0,29.0,29.96,NE,54,0.0,3.0,52,0.00,,,0.00,,2013-03-01 21:42:00,
2013-03-01 16:52:00,46.0,29.0,29.96,NE,54,0.0,3.0,52,0.00,,,0.00,,2013-03-01 21:52:00,
2013-03-01 17:01:00,46.0,30.0,29.96,NE,48,0.0,2.0,53,0.00,,,0.00,,2013-03-01 22:01:00,
2013-03-01 17:11:00,46.0,30.0,29.96,SSW,199,0.0,2.0,53,0.00,,,0.00,,2013-03-01 22:11:00,
2013-03-01 17:22:00,46.0,30.0,29.96,SSW,199,0.0,2.0,53,0.00,,,0.00,,2013-03-01 22:22:00,
2013-03-01 17:32:00,46.0,30.0,29.96,ENE,61,0.0,3.0,54,0.00,,,0.00,,2013-03-01 22:32:00,
2013-03-01 17:42:00,46.0,30.0,29.96,ENE,61,0.0,3.0,54,0.00,,,0.00,,2013-03-01 22:42:00,
2013-03-01 17:52:00,45.0,29.0,29.97,East,96,0.0,1.0,54,0.00,,,0.00,,2013-03-01 22:52:00,
2013-03-01 18:01:00,45.0,30.0,29.97,East,96,0.0,1.0,55,0.00,,,0.00,,2013-03-01 23:01:00,
2013-03-01 18:11:00,45.0,30.0,29.97,East,96,0.0,1.0,55,0.00,,,0.00,,2013-03-01 23:11:00,
2013-03-01 18:21:00,44.0,30.0,29.98,East,96,0.0,0.0,58,0.00,,,0.00,,2013-03-01 23:21:00,
2013-03-01 18:32:00,44.0,31.0,29.98,East,96,0.0,0.0,59,0.00,,,0.00,,2013-03-01 23:32:00,
2013-03-01 18:41:00,44.0,31.0,29.98,East,96,0.0,0.0,59,0.00,,,0.00,,2013-03-01 23:41:00,
2013-03-01 18:52:00,43.0,30.0,29.98,East,96,0.0,0.0,61,0.00,,,0.00,,2013-03-01 23:52:00,
2013-03-01 19:02:00,43.0,31.0,29.99,East,96,0.0,0.0,62,0.00,,,0.00,,2013-03-02 00:02:00,
2013-03-01 19:12:00,43.0,31.0,29.99,East,96,0.0,0.0,62,0.00,,,0.00,,2013-03-02 00:12:00,
2013-03-01 19:22:00,43.0,32.0,29.99,East,96,0.0,0.0,64,0.00,,,0.00,,2013-03-02 00:22:00,
2013-03-01 19:32:00,42.0,31.0,29.99,East,96,0.0,0.0,65,0.00,,,0.00,,2013-03-02 00:32:00,
2013-03-01 19:42:00,42.0,31.0,29.99,East,96,0.0,0.0,65,0.00,,,0.00,,2013-03-02 00:42:00,
2013-03-01 19:52:00,40.0,30.0,29.99,East,96,0.0,0.0,66,0.00,,,0.00,,2013-03-02 00:52:00,
2013-03-01 20:01:00,40.0,30.0,30.00,East,96,0.0,0.0,68,0.00,,,0.00,,2013-03-02 01:01:00,
2013-03-01 20:11:00,40.0,30.0,30.00,East,96,0.0,0.0,68,0.00,,,0.00,,2013-03-02 01:11:00,
2013-03-01 20:21:00,38.0,29.0,30.00,East,96,0.0,0.0,70,0.00,,,0.00,,2013-03-02 01:21:00,
2013-03-01 20:32:00,38.0,29.0,30.00,East,96,0.0,0.0,71,0.00,,,0.00,,2013-03-02 01:32:00,
2013-03-01 20:41:00,38.0,29.0,30.00,East,96,0.0,0.0,71,0.00,,,0.00,,2013-03-02 01:41:00,
2013-03-01 20:52:00,36.0,29.0,30.00,East,96,0.0,0.0,74,0.00,,,0.00,,2013-03-02 01:52:00,
2013-03-01 21:01:00,36.0,29.0,30.00,East,96,0.0,0.0,76,0.00,,,0.00,,2013-03-02 02:01:00,
2013-03-01 21:11:00,36.0,29.0,30.00,East,96,0.0,0.0,76,0.00,,,0.00,,2013-03-02 02:11:00,
2013-03-01 21:22:00,35.0,29.0,30.00,East,96,0.0,0.0,77,0.00,,,0.00,,2013-03-02 02:22:00,
2013-03-01 21:32:00,35.0,29.0,30.01,East,96,0.0,0.0,77,0.00,,,0.00,,2013-03-02 02:32:00,
2013-03-01 21:42:00,35.0,29.0,30.01,East,96,0.0,0.0,77,0.00,,,0.00,,2013-03-02 02:42:00,
2013-03-01 21:52:00,34.0,28.0,30.01,East,96,0.0,0.0,80,0.00,,,0.00,,2013-03-02 02:52:00,
2013-03-01 22:02:00,34.0,28.0,30.01,East,96,0.0,0.0,80,0.00,,,0.00,,2013-03-02 03:02:00,
2013-03-01 22:11:00,34.0,28.0,30.01,East,96,0.0,0.0,80,0.00,,,0.00,,2013-03-02 03:11:00,
2013-03-01 22:22:00,35.0,30.0,30.00,East,96,0.0,0.0,81,0.00,,,0.00,,2013-03-02 03:22:00,
2013-03-01 22:32:00,34.0,29.0,30.00,East,96,0.0,0.0,81,0.00,,,0.00,,2013-03-02 03:32:00,
2013-03-01 22:42:00,34.0,29.0,30.00,East,96,0.0,0.0,81,0.00,,,0.00,,2013-03-02 03:42:00,
2013-03-01 22:52:00,34.0,29.0,30.00,East,96,0.0,0.0,81,0.00,,,0.00,,2013-03-02 03:52:00,
2013-03-01 23:01:00,34.0,29.0,30.00,East,96,0.0,0.0,82,0.00,,,0.00,,2013-03-02 04:01:00,
2013-03-01 23:11:00,34.0,29.0,30.00,East,96,0.0,0.0,82,0.00,,,0.00,,2013-03-02 04:11:00,
2013-03-01 23:22:00,33.0,28.0,30.00,East,96,0.0,0.0,81,0.00,,,0.00,,2013-03-02 04:22:00,
2013-03-01 23:32:00,33.0,28.0,30.00,East,96,0.0,0.0,81,0.00,,,0.00,,2013-03-02 04:32:00,
2013-03-01 23:42:00,33.0,28.0,30.00,East,96,0.0,0.0,81,0.00,,,0.00,,2013-03-02 04:42:00,
2013-03-01 23:52:00,32.0,27.0,30.00,East,96,0.0,0.0,83,0.00,,,0.00,,2013-03-02 04:52:00,